RH
7 7 8 10 13 20 26 33 48 62 65 56 60 72 66 64 65 66 70 69 65 60 51 40 62 83 89 92 90 77 67 78 86 78 81 95 100 100
8 8 8 9 9 12 21 31 39 42 62 66 58 67 68 66 68 70 72 60 60 51 54 66 91 78 68 67 84 100 100 100 100 100 100 100 100 97
8 10 10 9 10 10 11 15 24 33 48 47 43 55 61 66 66 65 62 55 57 74 82 80 68 87 100 100 100 100 100 100 100 90 93 85 52 54
10 12 9 11 11 12 12 14 14 15 19 27 35 46 56 57 67 70 61 66 64 71 71 100 100 100 100 100 100 100 100 96 100 100 100 53 56 58
12 13 14 14 14 15 14 14 17 20 28 37 50 57 63 72 66 68 71 80 70 100 100 100 100 100 100 100 100 100 100 98 92 76 52 53 55 59
14 17 16 16 17 17 23 31 47 58 64 64 74 87 86 86 94 99 100 100 100 100 100 100 100 100 100 100 100 92 87 60 55 53 52 50 52 62
32 40 50 58 62 73 80 83 100 100 100 100 100 100 96 99 100 100 100 100 100 100 100 100 100 100 90 81 64 53 54 54 50 47 48 55 59 63
100 78 76 70 83 99 100 89 100 100 100 100 100 100 100 100 100 100 100 100 100 100 100 100 100 59 56 55 53 50 46 42 42 46 50 52 61 67
100 92 94 100 100 100 100 100 100 100 100 100 100 99 100 100 100 100 100 97 89 94 91 86 70 54 55 52 46 44 43 45 50 51 48 57 64 59
100 100 100 100 100 100 100 100 100 100 100 100 100 100 92 83 91 98 98 99 95 65 53 54 52 50 46 43 43 45 47 50 51 53 56 44 32 19
100 100 100 100 100 100 100 100 100 100 100 100 97 98 87 79 74 70 75 73 87 60 44 46 46 43 40 41 39 41 46 48 44 37 26 20 14 10
100 100 100 100 100 99 99 100 100 100 92 87 78 72 60 54 45 44 43 42 43 46 44 44 41 38 44 46 48 40 38 30 23 19 12 11 8 7
81 77 81 94 96 92 90 83 74 74 69 64 62 59 53 47 44 41 41 41 43 44 42 41 44 44 49 58 40 29 20 15 12 10 9 8 6 5
65 78 80 70 77 75 66 65 59 62 60 59 60 56 48 42 41 42 43 42 39 38 39 38 41 37 28 19 17 15 15 12 8 7 7 6 5 5
63 63 64 64 64 61 58 59 60 54 52 51 49 48 48 44 41 38 33 31 31 26 26 26 20 21 18 19 13 13 10 7 7 7 6 5 6 6
57 57 56 55 54 52 50 49 49 48 44 43 39 32 30 29 23 20 21 22 20 20 19 16 14 15 14 13 10 9 9 6 7 6 6 7 8 7
34 31 30 27 23 24 24 23 23 25 22 22 20 19 18 15 16 18 21 19 17 15 15 12 10 9 10 10 8 9 7 7 7 6 9 9 8 7
29 28 25 21 20 19 19 18 16 15 15 15 16 14 13 12 14 14 13 13 13 12 12 9 8 8 8 8 9 7 8 8 7 9 10 10 8 9
20 20 20 22 29 28 24 20 14 11 11 11 10 11 11 10 10 11 10 10 9 7 7 8 8 8 9 9 7 9 8 8 10 11 11 10 10 12
15 14 13 12 12 12 13 12 12 12 10 9 10 8 7 6 6 7 6 6 7 7 8 8 9 10 8 7 10 9 8 10 12 12 11 11 13 16
12 10 9 9 8 7 7 7 6 6 6 6 6 6 6 6 6 6 7 8 8 7 9 11 10 7 8 10 9 8 11 12 12 12 11 12 13 18
8 8 7 7 6 6 6 6 6 5 5 5 5 5 6 6 6 7 7 7 8 11 11 7 6 10 10 8 8 10 12 12 14 14 14 14 18 22
7 7 6 6 5 5 5 5 5 5 5 5 5 6 6 7 7 7 7 9 11 8 6 7 12 10 9 8 9 12 13 14 16 15 15 19 28 32
Wind_Speed
77 78 79 83 89 91 91 89 89 88 90 90 89 88 90 92 93 93 92 90 91 90 87 74 65 56 55 56 56 57 59 61 64 67 73 78 80 83
72 72 74 78 81 85 90 92 94 92 89 92 92 91 92 93 93 94 91 94 87 81 67 58 54 56 55 55 60 65 69 72 75 80 82 83 89 92
67 68 73 76 78 80 84 89 91 92 93 93 94 93 94 93 91 91 90 83 75 63 57 56 59 60 64 69 72 77 80 82 83 86 87 94 87 85
59 63 69 68 70 71 73 76 81 84 85 87 88 88 89 87 83 79 78 70 61 59 59 61 64 68 71 75 78 81 83 86 91 93 100 87 84 87
56 55 56 59 58 61 64 67 69 71 71 73 74 76 77 74 75 71 63 62 61 63 66 69 73 76 79 82 85 88 90 92 97 91 89 89 87 90
44 44 49 51 54 56 56 56 57 58 60 61 63 66 67 68 64 63 63 66 65 69 73 77 82 86 90 92 94 96 95 87 88 90 91 92 90 94
37 39 41 44 46 46 49 47 49 48 51 55 58 63 63 65 68 68 70 71 75 80 81 86 89 92 96 98 91 85 86 88 91 94 94 94 95 98
31 36 37 40 41 39 43 44 47 52 55 59 66 67 65 68 72 77 80 80 80 86 90 91 94 95 90 88 89 90 91 92 92 90 94 96 98 104
32 35 34 41 46 43 47 53 59 61 62 65 68 71 73 76 78 83 87 90 93 93 95 95 97 91 91 93 93 93 91 90 91 92 94 98 104 109
37 44 49 48 51 55 62 65 67 69 72 74 78 81 83 83 86 89 92 95 96 93 100 91 92 93 96 95 93 93 92 94 94 97 100 102 105 105
50 52 54 58 63 66 68 73 75 77 80 84 86 89 91 94 93 93 95 93 98 96 93 88 93 94 95 95 95 95 99 100 100 101 97 99 98 94
56 58 63 69 72 75 77 80 84 86 90 92 95 95 93 97 91 86 85 86 87 87 93 92 95 94 95 101 103 104 103 101 98 96 95 92 89 78
68 71 73 75 77 78 82 84 89 92 93 95 98 98 93 91 90 89 89 90 91 93 93 91 95 98 100 103 107 105 100 93 90 90 85 80 71 63
66 73 77 76 81 83 85 84 81 81 84 87 90 92 95 97 97 96 97 96 94 92 96 97 98 100 101 100 98 95 89 86 84 79 72 63 57 53
70 72 74 76 78 81 83 85 87 90 92 94 95 96 98 97 97 97 98 96 96 92 93 96 95 94 95 95 93 91 85 80 75 65 58 50 46 43
77 80 82 85 86 89 91 92 94 96 97 98 100 100 100 99 97 94 93 91 90 91 94 94 94 94 93 87 83 80 75 72 63 54 47 42 39 37
75 77 81 84 87 90 93 95 95 97 97 98 98 98 95 93 92 88 87 87 91 92 92 92 88 86 82 75 73 69 67 61 50 45 39 36 33 30
76 80 84 84 87 90 93 96 97 96 96 93 91 88 85 83 80 82 84 87 90 92 91 89 81 74 68 65 62 63 57 51 42 37 33 30 27 27
77 81 83 87 92 95 99 99 99 95 92 89 83 83 82 78 79 79 81 83 83 81 78 73 69 65 63 59 60 53 46 41 35 30 28 26 25 27
78 81 84 86 88 90 92 94 94 92 90 85 82 77 75 73 72 71 72 72 70 68 63 60 60 59 59 57 48 43 37 34 30 27 26 25 26 28
80 81 81 82 82 82 81 81 80 78 77 74 72 70 69 67 67 66 64 63 61 58 56 55 55 57 53 45 40 35 31 30 28 25 26 26 27 29
77 76 75 74 74 74 72 71 70 67 66 65 65 65 63 62 60 59 58 56 54 52 51 51 55 48 44 38 34 29 29 27 24 24 25 26 27 28
71 69 67 67 66 67 66 64 62 61 61 60 59 59 58 56 55 53 53 51 49 48 50 50 45 41 37 32 28 27 27 24 24 26 26 26 29 33
Wind_Direction
260 260 260 261 259 258 259 260 262 266 267 270 272 274 276 278 282 285 287 290 290 292 292 290 285 284 282 280 281 283 286 289 289 291 292 293 292 291
258 258 259 260 262 260 259 259 261 264 265 269 271 273 276 279 283 284 287 290 291 291 288 286 285 285 284 287 291 290 289 288 287 288 289 290 291 292
255 258 259 258 261 262 262 261 262 263 265 269 271 273 276 279 283 284 286 287 286 284 284 282 282 290 292 287 285 285 286 287 288 290 291 294 297 295
252 253 259 259 262 263 263 263 264 266 266 268 272 274 278 279 282 280 281 283 282 279 282 288 286 283 282 283 284 286 288 289 290 291 292 294 294 294
252 255 259 262 263 264 265 266 267 268 269 271 273 275 276 276 278 280 283 281 285 287 285 281 281 282 283 283 285 287 289 292 291 291 291 291 291 292
256 257 260 263 264 264 267 268 270 271 272 273 273 273 275 278 281 280 283 283 280 280 281 282 282 281 283 286 290 291 290 290 290 290 290 290 290 291
258 257 258 261 263 264 264 264 270 266 265 264 268 272 277 281 280 279 276 277 279 278 281 284 286 290 289 289 288 288 288 287 288 288 288 290 290 290
258 259 257 259 263 262 267 275 277 273 275 276 278 279 275 272 273 276 276 277 277 280 278 283 285 288 285 286 286 285 284 285 286 288 289 291 292 291
280 275 276 284 284 277 275 268 271 276 276 272 273 272 272 274 274 274 276 278 279 280 282 283 286 284 284 283 284 286 289 289 289 290 292 293 292 290
277 281 280 278 270 271 266 271 271 269 270 271 272 273 276 277 276 275 276 279 281 284 286 285 282 281 281 284 287 288 289 289 291 293 293 291 289 289
264 264 264 266 267 267 266 266 267 269 270 272 274 275 275 278 278 278 278 279 278 280 280 282 282 283 285 286 287 290 290 291 292 293 290 288 289 289
262 265 264 263 265 267 268 270 273 274 275 276 277 278 279 281 282 280 279 277 277 278 281 283 284 285 287 289 289 289 291 293 294 291 289 291 290 287
266 269 268 268 268 271 271 272 274 274 276 277 278 280 282 281 281 281 281 280 282 282 283 284 286 287 287 286 287 291 295 295 290 290 292 290 287 285
275 272 274 274 272 273 273 275 276 276 276 277 278 278 278 280 283 284 284 284 284 284 284 284 284 284 285 289 292 295 296 294 293 291 290 286 284 277
279 278 277 276 275 274 275 275 275 275 276 277 279 281 281 281 281 282 283 284 285 285 283 283 284 286 289 291 294 294 292 292 293 289 287 285 279 272
281 281 280 279 278 278 278 278 278 278 278 279 280 282 283 283 283 284 286 286 284 284 285 286 289 290 291 293 292 291 292 292 292 289 287 282 274 268
285 285 284 283 282 281 281 282 282 281 282 282 282 285 286 285 284 283 282 281 282 283 285 288 290 291 291 290 291 292 292 291 290 286 281 273 267 257
290 290 289 287 285 284 284 284 284 284 284 286 286 287 286 284 283 282 281 281 281 284 287 288 292 291 290 290 292 292 290 289 286 280 274 268 258 246
296 291 287 285 285 286 286 286 287 289 290 292 292 291 291 288 284 283 283 285 285 288 287 290 292 291 292 292 292 289 287 284 279 274 266 252 243 235
296 290 287 285 284 284 284 285 287 289 290 291 292 291 291 289 288 287 285 287 288 289 292 292 291 291 291 292 287 285 281 275 270 263 252 239 229 228
296 292 290 289 289 289 289 289 290 291 291 291 291 290 291 290 289 290 290 290 292 293 293 292 290 290 290 288 283 279 271 267 264 256 244 229 222 219
296 294 294 294 293 292 292 292 291 291 290 290 290 290 291 291 291 291 293 294 295 293 290 289 291 289 287 283 278 269 263 260 253 242 234 224 215 213
299 298 296 295 295 294 293 292 292 292 291 290 290 291 291 292 293 293 294 294 290 289 291 293 288 286 282 277 269 261 255 249 239 231 224 215 212 210